Location: Grasslands National Park East Block
(49.0708°N, 106.5295°W)
Time: 06:34:07
(UTC-06:00)

Vanguard 1 - Pass Details

Date: 01 October 2019
Orbit: 653 x 3830 km, 34.2° (Epoch: 20 October)

Event Time Altitude Azimuth Distance (km) Brightness Sun altitude
Rises 06:46:31 0° 279° (W) 7,974 - -3.9°
Exits shadow 06:48:50 - 277° (W) 7,605 13.9 -3.6°
Reaches altitude 10° 06:53:24 10° 270° (W) 6,889 13.7 -2.8°
Maximum altitude 07:09:32 27° 224° (SW) 4,897 13.3 -0.2°
Drops below altitude 10° 07:21:45 10° 175° (S) 5,121 13.9 1.8°
Sets 07:25:56 0° 163° (SSE) 5,674 14.3 2.5°
